Barnwell, SC

2:19 PM EDT on July 22, 2017 (GMT -0400)
Barnwell County

Weather History for KBNL - April, 2013

Change the Weather History Date:

Tuesday, April 16, 2013

  Actual Average (KOGB) Record (KOGB)
Temperature  
Mean Temperature 68 °F -  
Max Temperature 80 °F 76 °F 90 °F (1972)
Min Temperature 57 °F 50 °F 34 °F (2008)
Cooling Degree Days 4    
Growing Degree Days 18 (Base 50)    
Moisture  
Dew Point 60 °F    
Average Humidity 78    
Maximum Humidity 100    
Minimum Humidity 48    
Precipitation  
Precipitation 0.06 in - - ()
Sea Level Pressure  
Sea Level Pressure 30.22 in    
Wind  
Wind Speed 2 mph (East)    
Max Wind Speed 10 mph    
Max Gust Speed -    
Visibility 8 miles    
Events Fog    
Averages and records for this station are not official NWS values.
T = Trace of Precipitation, MM = Missing Value Source: NWS Daily Summary

Daily Weather History Graph

Daily Weather History Graph

Search for Another Location

Airport or City:

Trip Planner

Search our weather history database for the weather conditions in past years. The results will help you decide how hot, cold, wet, or windy it might be!

Date:

Astronomy

Apr. 16, 2013 Rise Set
Actual Time 6:53 AM EDT 7:57 PM EDT
Civil Twilight 6:28 AM EDT 8:22 PM EDT
Nautical Twilight 5:58 AM EDT 8:53 PM EDT
Astronomical Twilight 5:26 AM EDT 9:24 PM EDT
Moon 11:18 AM EDT (4/16) 12:45 AM EDT (4/16)
Length of Visible Light 13h 54m
Length of Day
13h 03m
Waxing Crescent, 33% of the Moon is Illuminated
Apr 16
Waxing Crescent
Apr 18
First Quarter
Apr 25
Full
May 2
Last Quarter
May 9
New

Hourly Weather History & Observations

Time (EDT) Temp. Heat Index Dew Point Humidity Pressure Visibility Wind Dir Wind Speed Gust Speed Precip Events Conditions
12:15 AM 60.8 °F - 60.8 °F 100% 30.18 in 0.2 mi Calm Calm - N/A Fog Fog
12:35 AM 60.8 °F - 60.8 °F 100% 30.18 in 0.5 mi Calm Calm - N/A Fog Fog
1:15 AM 59.0 °F - 57.2 °F 94% 30.19 in 5.0 mi Calm Calm - N/A   Clear
1:35 AM 57.2 °F - 57.2 °F 100% 30.19 in 0.8 mi Calm Calm - N/A   Mist
1:55 AM 57.2 °F - 57.2 °F 100% 30.19 in 9.0 mi Calm Calm - N/A   Partly Cloudy
2:15 AM 57.2 °F - 57.2 °F 100% 30.19 in 8.0 mi Calm Calm - N/A   Scattered Clouds
2:35 AM 57.2 °F - 57.2 °F 100% 30.19 in 8.0 mi Calm Calm - N/A   Scattered Clouds
2:55 AM 59.0 °F - 57.2 °F 94% 30.19 in 4.0 mi Calm Calm - N/A   Mostly Cloudy
3:15 AM 57.2 °F - 57.2 °F 100% 30.19 in 2.5 mi Calm Calm - N/A   Mostly Cloudy
3:35 AM 57.2 °F - 57.2 °F 100% 30.19 in 10.0 mi Calm Calm - N/A   Mostly Cloudy
3:55 AM 57.2 °F - 57.2 °F 100% 30.19 in 9.0 mi Calm Calm - N/A   Mostly Cloudy
4:15 AM 57.2 °F - 57.2 °F 100% 30.19 in 8.0 mi Calm Calm - N/A   Mostly Cloudy
4:35 AM 59.0 °F - 59.0 °F 100% 30.19 in 4.0 mi Calm Calm - N/A   Overcast
4:55 AM 60.8 °F - 59.0 °F 94% 30.20 in 5.0 mi Calm Calm - N/A   Overcast
5:15 AM 60.8 °F - 60.8 °F 100% 30.20 in 2.5 mi Calm Calm - N/A   Overcast
5:35 AM 60.8 °F - 59.0 °F 94% 30.20 in 1.5 mi Calm Calm - N/A   Mostly Cloudy
5:55 AM 60.8 °F - 60.8 °F 100% 30.20 in 5.0 mi Calm Calm - N/A   Scattered Clouds
6:15 AM 59.0 °F - 59.0 °F 100% 30.20 in 1.8 mi Calm Calm - N/A   Scattered Clouds
6:35 AM 57.2 °F - 57.2 °F 100% 30.20 in 0.8 mi Calm Calm - N/A   Mostly Cloudy
6:55 AM 59.0 °F - 57.2 °F 94% 30.20 in 5.0 mi Calm Calm - N/A   Clear
7:15 AM 59.0 °F - 59.0 °F 100% 30.21 in 5.0 mi Calm Calm - N/A   Clear
7:35 AM 60.8 °F - 60.8 °F 100% 30.22 in 5.0 mi Calm Calm - N/A   Clear
7:55 AM 60.8 °F - 60.8 °F 100% 30.23 in 7.0 mi Calm Calm - N/A   Clear
8:15 AM 62.6 °F - 60.8 °F 94% 30.24 in 7.0 mi Calm Calm - N/A   Clear
8:35 AM 62.6 °F - 62.6 °F 100% 30.25 in 10.0 mi Calm Calm - N/A   Clear
8:55 AM 64.4 °F - 62.6 °F 94% 30.25 in 10.0 mi East 4.6 mph - N/A   Clear
9:15 AM 66.2 °F - 62.6 °F 88% 30.25 in 10.0 mi East 4.6 mph - N/A   Clear
10:55 AM 73.4 °F - 62.6 °F 69% 30.27 in 10.0 mi ESE 5.8 mph - N/A   Unknown
11:15 AM 73.4 °F - 62.6 °F 69% 30.27 in 10.0 mi East 4.6 mph - N/A   Clear
11:35 AM 75.2 °F - 60.8 °F 61% 30.27 in - East 6.9 mph - N/A   Clear
11:55 AM 75.2 °F - 60.8 °F 61% 30.27 in 10.0 mi East 5.8 mph - 0.06 in   Clear
12:15 PM 77.0 °F - 60.8 °F 57% 30.27 in 10.0 mi East 8.1 mph - N/A   Scattered Clouds
12:35 PM 75.2 °F - 60.8 °F 61% 30.27 in 10.0 mi Calm Calm - N/A   Scattered Clouds
12:55 PM 77.0 °F - 60.8 °F 57% 30.26 in 10.0 mi East 8.1 mph - N/A   Mostly Cloudy
1:15 PM 77.0 °F - 60.8 °F 57% 30.25 in 10.0 mi Calm Calm - N/A   Partly Cloudy
1:55 PM 78.8 °F - 60.8 °F 54% 30.24 in 10.0 mi ENE 6.9 mph - N/A   Scattered Clouds
2:15 PM 78.8 °F - 59.0 °F 51% 30.24 in 10.0 mi ENE 4.6 mph - N/A   Mostly Cloudy
2:35 PM 78.8 °F - 59.0 °F 51% 30.23 in 10.0 mi ENE 4.6 mph - N/A   Mostly Cloudy
2:55 PM 78.8 °F - 60.8 °F 54% 30.22 in 10.0 mi NNE 4.6 mph - N/A   Scattered Clouds
3:15 PM 78.8 °F - 59.0 °F 51% 30.22 in 10.0 mi NE 6.9 mph - N/A   Mostly Cloudy
3:35 PM 78.8 °F - 59.0 °F 51% 30.22 in 10.0 mi East 4.6 mph - N/A   Mostly Cloudy
3:55 PM 80.6 °F 81.1 °F 59.0 °F 48% 30.21 in 10.0 mi East 6.9 mph - N/A   Mostly Cloudy
4:15 PM 80.6 °F 81.1 °F 59.0 °F 48% 30.20 in 10.0 mi SE 10.4 mph - N/A   Scattered Clouds
4:35 PM 80.6 °F 81.1 °F 59.0 °F 48% 30.20 in 10.0 mi East 9.2 mph - N/A   Partly Cloudy
4:55 PM 80.6 °F 81.1 °F 59.0 °F 48% 30.20 in 10.0 mi SE 6.9 mph - N/A   Clear
5:15 PM 80.6 °F 81.1 °F 59.0 °F 48% 30.20 in 10.0 mi NE 5.8 mph - N/A   Clear
5:35 PM 80.6 °F 81.1 °F 59.0 °F 48% 30.20 in 10.0 mi East 8.1 mph - N/A   Scattered Clouds
5:55 PM 78.8 °F - 60.8 °F 54% 30.20 in 10.0 mi ESE 5.8 mph - N/A   Mostly Cloudy
6:15 PM 80.6 °F 81.1 °F 59.0 °F 48% 30.19 in 10.0 mi East 6.9 mph - N/A   Scattered Clouds
6:35 PM 78.8 °F - 60.8 °F 54% 30.19 in 10.0 mi East 9.2 mph - N/A   Partly Cloudy
6:55 PM 78.8 °F - 59.0 °F 51% 30.19 in 10.0 mi East 5.8 mph - N/A   Clear
7:15 PM 77.0 °F - 59.0 °F 54% 30.19 in 10.0 mi SE 5.8 mph - N/A   Clear
7:35 PM 75.2 °F - 60.8 °F 61% 30.20 in 10.0 mi Calm Calm - N/A   Clear
7:55 PM 73.4 °F - 60.8 °F 65% 30.20 in 10.0 mi Calm Calm - N/A   Clear
8:15 PM 73.4 °F - 60.8 °F 65% 30.20 in 10.0 mi Calm Calm - N/A   Clear
8:35 PM 69.8 °F - 60.8 °F 73% 30.21 in 10.0 mi Calm Calm - N/A   Light Drizzle
8:55 PM 66.2 °F - 60.8 °F 83% 30.21 in 10.0 mi Calm Calm - N/A   Clear
9:15 PM 64.4 °F - 60.8 °F 88% 30.22 in 10.0 mi Calm Calm - N/A   Clear
9:35 PM 64.4 °F - 60.8 °F 88% 30.23 in 10.0 mi Calm Calm - N/A   Clear
9:55 PM 64.4 °F - 60.8 °F 88% 30.23 in 10.0 mi Calm Calm - N/A   Clear
10:15 PM 66.2 °F - 60.8 °F 83% 30.24 in 10.0 mi Calm Calm - N/A   Clear
10:35 PM 66.2 °F - 60.8 °F 83% 30.24 in 10.0 mi Calm Calm - N/A   Clear
10:55 PM 66.2 °F - 62.6 °F 88% 30.23 in 10.0 mi Calm Calm - N/A   Clear
11:15 PM 66.2 °F - 62.6 °F 88% 30.23 in 10.0 mi Calm Calm - N/A   Clear
11:55 PM 64.4 °F - 62.6 °F 94% 30.24 in 10.0 mi Calm Calm - N/A   Clear